Location: Boiro
(42.6475°N, 8.8834°W)
Time: 12:07:06
(UTC+01:00)

Vanguard 1 Rocket - Pass Details

Date: 08 December 2021
Orbit: 651 x 4224 km, 34.3° (Epoch: 21 January)

Event Time Altitude Azimuth Distance (km) Brightness Sun altitude
Exits shadow 07:13:29 18° 264° (W) 4,297 10.2 -17.6°
Maximum altitude 07:25:20 55° 197° (SSW) 3,703 10.4 -15.6°
Drops below altitude 10° 07:48:49 10° 128° (SE) 7,395 13.3 -11.5°
Sets 07:55:01 0° 125° (SE) 8,458 14.1 -10.4°
